User: anonymous   Login
Location: Innerarity Island Observatory
(30.3139°N, 87.4867°W)
Time: 18:17:25
(UTC-06:00)
Language:

JAS-2 - Orbit

View from above orbital plane
View from above orbital plane
View from above satellite
View from above satellite

Ground track
Ground track

The orbit data is extracted from the following two-line orbital elements,

1 24278U 96046B   16336.95331394 +.00000011 +00000-0 +44705-4 0  9990
2 24278 098.5835 240.1984 0351200 128.1451 235.1894 13.53072115001959
Epoch (UTC): 01 December 2016 22:52:46
Eccentricity: 0.0351200
inclination: 98.5835°
perigee height: 800 km
apogee height: 1322 km
right ascension of ascending node: 240.1984°
argument of perigee: 128.1451°
revolutions per day: 13.53072115
mean anomaly at epoch: 235.1894°
orbit number at epoch: 195

The dashed part of the orbit path shows where the satellite is in the earth's shadow,  

DLR